Powrót do katalogu

CZ-3B DEB

AktywnyGTO
NORAD 40184·DEBRIS·🇨🇳 China

Wystrzelony Dec 19, 2011 z Xichang Satellite Launch Center

Loading…

TLE

NieaktualneSource: Space-Track

Epoka: Sep 13, 2026, 21:40 UTC

1 40184U 11077H   26256.90336687  .00000777  00000-0  20225-2 0  9990
2 40184  21.3524 167.4624 7514208 135.8599 317.0950  1.93677846 81705

Śledź CZ-3B DEB w czasie rzeczywistym z AllMySat

Download on the App Store